New Bern, NC

10:37 AM EDT on June 29, 2017 (GMT -0400)
Craven County Regional

Weather History for KEWN - April, 2012

Change the Weather History Date:

Tuesday, April 10, 2012

  Actual Average Record
Temperature  
Mean Temperature 64 °F 60 °F  
Max Temperature 77 °F 72 °F 89 °F (2001)
Min Temperature 51 °F 49 °F 29 °F (2007)
Degree Days  
Heating Degree Days 1 6  
Month to date heating degree days 62 70  
Since 1 July heating degree days 2018 2585  
Cooling Degree Days 0 1  
Month to date cooling degree days 7 10  
Year to date cooling degree days 65 24  
Growing Degree Days 14 (Base 50)    
Moisture  
Dew Point 44 °F    
Average Humidity 53    
Maximum Humidity 83    
Minimum Humidity 23    
Precipitation  
Precipitation 0.00 in 0.10 in 1.47 in (2003)
Month to date precipitation 1.27 1.08  
Year to date precipitation 9.05 13.15  
Snow  
Snow 0.00 in - - ()
Month to date snowfall 0.0  
Since 1 July snowfall T  
Snow Depth 0.00 in    
Sea Level Pressure  
Sea Level Pressure 29.87 in    
Wind  
Wind Speed 8 mph (WSW)    
Max Wind Speed 18 mph    
Max Gust Speed 29 mph    
Visibility 10 miles    
Events      
T = Trace of Precipitation, MM = Missing Value Source: NWS Daily Summary

Daily Weather History Graph

Daily Weather History Graph

Search for Another Location

Airport or City:

Trip Planner

Search our weather history database for the weather conditions in past years. The results will help you decide how hot, cold, wet, or windy it might be!

Date:

Astronomy

Apr. 10, 2012 Rise Set
Actual Time 6:42 AM EDT 7:37 PM EDT
Civil Twilight 6:16 AM EDT 8:03 PM EDT
Nautical Twilight 5:45 AM EDT 8:33 PM EDT
Astronomical Twilight 5:14 AM EDT 9:05 PM EDT
Moon No Moon Rise 9:33 AM EDT (4/10)
Length of Visible Light 13h 46m
Length of Day
12h 55m
Waning Gibbous, 79% of the Moon is Illuminated
Apr 10
Waning Gibbous
Apr 13
Last Quarter
Apr 21
New
Apr 29
First Quarter
May 5
Full

Hourly Weather History & Observations

Time (EDT) Temp. Dew Point Humidity Pressure Visibility Wind Dir Wind Speed Gust Speed Precip Events Conditions
12:54 AM 55.9 °F 46.0 °F 69% 29.91 in 10.0 mi SW 6.9 mph - N/A   Clear
1:54 AM 54.0 °F 46.0 °F 75% 29.89 in 10.0 mi SW 3.5 mph - N/A   Clear
2:54 AM 55.0 °F 48.0 °F 77% 29.89 in 10.0 mi SW 4.6 mph - N/A   Clear
3:54 AM 53.1 °F 48.0 °F 83% 29.88 in 10.0 mi SW 6.9 mph - N/A   Clear
4:54 AM 54.0 °F 48.0 °F 80% 29.88 in 10.0 mi West 8.1 mph - N/A   Clear
5:54 AM 53.1 °F 46.9 °F 80% 29.91 in 10.0 mi West 5.8 mph - N/A   Clear
6:54 AM 52.0 °F 46.9 °F 83% 29.95 in 10.0 mi WNW 4.6 mph - N/A   Clear
7:54 AM 54.0 °F 46.9 °F 77% 29.96 in 10.0 mi WNW 3.5 mph - N/A   Clear
8:54 AM 57.9 °F 48.0 °F 70% 29.97 in 10.0 mi Calm Calm - N/A   Clear
9:54 AM 64.0 °F 48.9 °F 58% 29.98 in 10.0 mi Variable 3.5 mph - N/A   Clear
10:54 AM 69.1 °F 37.9 °F 32% 29.98 in 10.0 mi WSW 5.8 mph - N/A   Clear
11:54 AM 71.1 °F 37.0 °F 29% 29.95 in 10.0 mi West 6.9 mph - N/A   Clear
12:54 PM 73.0 °F 35.1 °F 25% 29.91 in 10.0 mi WSW 8.1 mph - N/A   Clear
1:54 PM 73.9 °F 33.1 °F 22% 29.88 in 10.0 mi WNW 10.4 mph 23.0 mph N/A   Clear
2:54 PM 75.2 °F 35.6 °F 24% 29.86 in 10.0 mi West 13.8 mph 23.0 mph N/A   Clear
3:54 PM 75.9 °F 35.1 °F 23% 29.82 in 10.0 mi WSW 13.8 mph 24.2 mph N/A   Clear
4:54 PM 75.0 °F 37.0 °F 25% 29.81 in 10.0 mi West 13.8 mph 23.0 mph N/A   Partly Cloudy
5:54 PM 75.0 °F 35.1 °F 23% 29.80 in 10.0 mi WSW 12.7 mph 26.5 mph N/A   Clear
6:16 PM 69.8 °F 46.4 °F 43% 29.80 in 10.0 mi SSW 9.2 mph - N/A   Clear
6:54 PM 69.1 °F 48.0 °F 47% 29.80 in 10.0 mi South 8.1 mph - N/A   Partly Cloudy
7:54 PM 64.9 °F 46.9 °F 52% 29.80 in 10.0 mi SSW 12.7 mph 18.4 mph N/A   Scattered Clouds
8:54 PM 64.0 °F 48.0 °F 56% 29.82 in 10.0 mi SSW 11.5 mph 20.7 mph N/A   Clear
9:54 PM 63.0 °F 48.9 °F 60% 29.81 in 10.0 mi SSW 11.5 mph - N/A   Clear
10:54 PM 64.9 °F 48.0 °F 54% 29.80 in 10.0 mi SW 12.7 mph 25.3 mph N/A   Clear
11:54 PM 64.9 °F 46.9 °F 52% 29.78 in 10.0 mi WSW 8.1 mph - N/A   Clear